This demonstration page uses our WeatherBlox Daily Observations layout. Learn more.

Left ArrowRight Arrow

Hourly Observations for December 3, 2022

Temp ( °F °C ) Dew Point ( °F °C ) Humidity (%) Winds ( mph kmh ) Pressure ( in mb ) Visibility ( mi km ) Precip ( " mm )
12:15 am 00:15 Cloudy 48 9 48 9 100 100 SSW 13 20 29.94 1014 4 6 0.00 0.00
12:35 am 00:35 Cloudy 50 10 50 10 100 100 SSW 16 26 29.94 1014 3 5 0.00 0.00
12:55 am 00:55 Cloudy 50 10 50 10 100 100 SSW 17 28 29.93 1014 5 8 0.00 0.00
1:15 am 01:15 Cloudy 50 10 50 10 100 100 SSW 18 30 29.93 1014 10 16 0.00 0.00
1:35 am 01:35 Cloudy 50 10 50 10 100 100 SSW 15 24 29.93 1014 10 16 0.00 0.00
1:55 am 01:55 Cloudy 52 11 52 11 100 100 SSW 18 30 29.93 1013 10 16 0.00 0.00
2:15 am 02:15 Cloudy 52 11 52 11 100 100 SW 20 31 29.93 1013 10 16 0.00 0.00
2:35 am 02:35 Cloudy 52 11 52 11 100 100 SW 17 28 29.94 1014 10 16 0.00 0.00
2:55 am 02:55 Cloudy 52 11 52 11 100 100 SW 21 33 29.94 1014 10 16 0.00 0.00
3:15 am 03:15 Cloudy 52 11 52 11 100 100 SW 15 24 29.94 1014 10 16 0.00 0.00
3:35 am 03:35 Cloudy 52 11 52 11 100 100 SW 18 30 29.95 1014 10 16 0.00 0.00
3:55 am 03:55 Cloudy 52 11 52 11 100 100 SW 16 26 29.95 1014 10 16 0.00 0.00
4:15 am 04:15 Cloudy 54 12 52 11 94 94 SW 20 31 29.94 1014 10 16 0.00 0.00
4:35 am 04:35 Cloudy 54 12 52 11 94 94 SW 21 33 29.94 1014 10 16 0.00 0.00
4:55 am 04:55 Cloudy 54 12 52 11 94 94 WSW 23 37 29.95 1014 10 16 0.00 0.00
5:15 am 05:15 Cloudy 54 12 52 11 94 94 SW 18 30 29.96 1015 10 16 0.00 0.00
5:35 am 05:35 Cloudy 54 12 52 11 94 94 WSW 18 30 29.96 1015 10 16 0.00 0.00
5:55 am 05:55 Cloudy 52 11 52 11 100 100 WSW 20 31 29.98 1015 7 11 0.00 0.00
6:15 am 06:15 Cloudy 50 10 50 10 100 100 WNW 32 52 30.02 1017 7 11 0.00 0.00
6:35 am 06:35 Cloudy 43 6 37 3 81 81 W 37 59 30.10 1019 10 16 0.00 0.00
6:55 am 06:55 Cloudy 41 5 34 1 75 75 W 25 41 30.13 1020 10 16 0.00 0.00
7:15 am 07:15 Cloudy 37 3 32 0 81 81 W 26 43 30.16 1021 10 16 0.00 0.00
7:35 am 07:35 Mostly Cloudy 36 2 30 -1 80 80 W 20 31 30.19 1022 10 16 0.00 0.00
7:55 am 07:55 Partly Cloudy 34 1 27 -3 75 75 WNW 24 39 30.21 1023 10 16 0.00 0.00
8:15 am 08:15 Sunny 32 0 25 -4 74 74 WNW 28 44 30.23 1024 10 16 0.00 0.00
8:35 am 08:35 Sunny 32 0 25 -4 74 74 W 18 30 30.26 1025 10 16 0.00 0.00
8:55 am 08:55 Sunny 32 0 25 -4 74 74 W 18 30 30.28 1025 10 16 0.00 0.00
9:15 am 09:15 Sunny 32 0 23 -5 69 69 W 18 30 30.28 1026 10 16 0.00 0.00
9:35 am 09:35 Sunny 30 -1 21 -6 69 69 WNW 22 35 30.31 1026 10 16 0.00 0.00
9:55 am 09:55 Sunny 32 0 23 -5 69 69 W 15 24 30.31 1027 10 16 0.00 0.00
10:15 am 10:15 Sunny 32 0 23 -5 69 69 W 16 26 30.33 1027 10 16 0.00 0.00
10:35 am 10:35 Sunny 32 0 21 -6 64 64 WNW 20 31 30.34 1027 10 16 0.00 0.00
10:55 am 10:55 Sunny 34 1 23 -5 64 64 W 18 30 30.35 1028 10 16 0.00 0.00
11:15 am 11:15 Sunny 34 1 23 -5 64 64 WNW 17 28 30.36 1028 10 16 0.00 0.00
11:35 am 11:35 Sunny 34 1 21 -6 59 59 WNW 18 30 30.37 1029 10 16 0.00 0.00
11:55 am 11:55 Sunny 34 1 23 -5 64 64 WNW 16 26 30.38 1029 10 16 0.00 0.00
12:15 pm 12:15 Sunny 36 2 23 -5 60 60 WNW 20 31 30.37 1028 10 16 0.00 0.00
12:35 pm 12:35 Sunny 34 1 23 -5 64 64 WNW 15 24 30.38 1029 10 16 0.00 0.00
12:55 pm 12:55 Sunny 34 1 21 -6 59 59 WNW 14 22 30.39 1029 10 16 0.00 0.00
1:15 pm 13:15 Sunny 36 2 21 -6 55 55 WNW 17 28 30.39 1029 10 16 0.00 0.00
1:35 pm 13:35 Sunny 36 2 23 -5 60 60 WNW 15 24 30.40 1029 10 16 0.00 0.00
1:55 pm 13:55 Sunny 36 2 21 -6 55 55 WNW 14 22 30.40 1029 10 16 0.00 0.00
2:15 pm 14:15 Sunny 37 3 23 -5 56 56 WNW 16 26 30.40 1030 10 16 0.00 0.00
2:35 pm 14:35 Sunny 36 2 23 -5 60 60 WNW 14 22 30.41 1030 10 16 0.00 0.00
2:55 pm 14:55 Sunny 36 2 23 -5 60 60 W 15 24 30.42 1030 10 16 0.00 0.00
3:15 pm 15:15 Sunny 36 2 23 -5 60 60 WNW 16 26 30.42 1030 10 16 0.00 0.00
3:35 pm 15:35 Sunny 36 2 23 -5 60 60 WNW 15 24 30.43 1030 10 16 0.00 0.00
3:55 pm 15:55 Sunny 36 2 21 -6 55 55 WNW 13 20 30.44 1031 10 16 0.00 0.00
4:15 pm 16:15 Sunny 34 1 21 -6 59 59 WNW 12 19 30.44 1031 10 16 0.00 0.00
4:35 pm 16:35 Sunny 34 1 19 -7 55 55 WNW 12 19 30.45 1031 10 16 0.00 0.00
4:55 pm 16:55 Sunny 32 0 19 -7 59 59 WNW 8 13 30.46 1031 10 16 0.00 0.00
5:15 pm 17:15 Sunny 32 0 19 -7 59 59 WNW 10 17 30.47 1032 10 16 0.00 0.00
5:35 pm 17:35 Clear 30 -1 18 -8 59 59 WNW 9 15 30.47 1032 10 16 0.00 0.00
5:55 pm 17:55 Clear 28 -2 18 -8 63 63 W 6 9 30.47 1032 10 16 0.00 0.00
6:15 pm 18:15 Clear 27 -3 18 -8 68 68 WNW 5 7 30.48 1032 10 16 0.00 0.00
6:35 pm 18:35 Clear 23 -5 16 -9 73 73 WSW 5 7 30.48 1032 10 16 0.00 0.00
6:55 pm 18:55 Clear 23 -5 16 -9 73 73 W 6 9 30.48 1032 10 16 0.00 0.00
7:15 pm 19:15 Clear 23 -5 16 -9 73 73 WSW 5 7 30.50 1033 10 16 0.00 0.00
7:35 pm 19:35 Clear 23 -5 16 -9 73 73 WSW 7 11 30.50 1033 10 16 0.00 0.00
7:55 pm 19:55 Clear 23 -5 16 -9 73 73 WSW 5 7 30.50 1033 10 16 0.00 0.00
8:15 pm 20:15 Clear 21 -6 16 -9 79 79 WSW 5 7 30.50 1033 10 16 0.00 0.00
8:35 pm 20:35 Clear 23 -5 16 -9 73 73 W 5 7 30.50 1033 10 16 0.00 0.00
8:55 pm 20:55 Clear 25 -4 16 -9 68 68 WNW 6 9 30.50 1033 10 16 0.00 0.00
9:15 pm 21:15 Clear 23 -5 16 -9 73 73 W 6 9 30.51 1033 10 16 0.00 0.00
9:35 pm 21:35 Clear 23 -5 16 -9 73 73 W 5 7 30.51 1033 10 16 0.00 0.00
9:55 pm 21:55 Clear 21 -6 16 -9 79 79 WSW 5 7 30.52 1033 10 16 0.00 0.00
10:15 pm 22:15 Clear 23 -5 16 -9 73 73 W 5 7 30.51 1033 10 16 0.00 0.00
10:35 pm 22:35 Clear 21 -6 16 -9 79 79 W 3 6 30.52 1033 10 16 0.00 0.00
10:55 pm 22:55 Clear 21 -6 16 -9 79 79 W 3 6 30.51 1033 10 16 0.00 0.00
11:15 pm 23:15 Clear 19 -7 14 -10 79 79 Calm 30.51 1033 10 16 0.00 0.00
11:35 pm 23:35 Clear 21 -6 14 -10 73 73 Calm 30.53 1034 10 16 0.00 0.00
11:55 pm 23:55 Clear 21 -6 14 -10 73 73 Calm 30.52 1033 10 16 0.00 0.00

Powered by AerisWeather